| time (UTC) | temp F | wind direction | speed MPH | gust MPH | rain 1hr in | rain 24hr in | rain mn in | humidity % | barometer mb |
| 20260902235156 | 91 | 143 | 4.0 | 7.0 | 0.00 | 0.00 | 0.00 | 67 | 1009.6 |
| 20260902234655 | 91 | 211 | 4.0 | 7.0 | 0.00 | 0.00 | 0.00 | 67 | 1009.8 |
| 20260902234154 | 91 | 109 | 4.0 | 8.0 | 0.00 | 0.00 | 0.00 | 67 | 1009.8 |
| 20260902233649 | 91 | 167 | 5.0 | 9.0 | 0.00 | 0.00 | 0.00 | 66 | 1009.7 |
| 20260902233149 | 91 | 200 | 4.0 | 15.0 | 0.00 | 0.00 | 0.00 | 66 | 1009.7 |
| 20260902232648 | 92 | 193 | 6.0 | 11.0 | 0.00 | 0.00 | 0.00 | 66 | 1009.7 |
| 20260902232147 | 92 | 169 | 4.0 | 9.0 | 0.00 | 0.00 | 0.00 | 65 | 1009.7 |
| 20260902231641 | 92 | 197 | 6.0 | 10.0 | 0.00 | 0.00 | 0.00 | 65 | 1009.6 |
| 20260902231136 | 93 | 172 | 5.0 | 10.0 | 0.00 | 0.00 | 0.00 | 65 | 1009.7 |
| 20260902230632 | 93 | 182 | 1.0 | 14.0 | 0.00 | 0.00 | 0.00 | 64 | 1009.7 |
| 20260902230130 | 93 | 204 | 6.0 | 9.0 | 0.00 | 0.00 | 0.00 | 64 | 1009.5 |
| 20260902225626 | 93 | 201 | 3.0 | 7.0 | 0.00 | 0.00 | 0.00 | 65 | 1009.6 |
| 20260902225125 | 93 | 167 | 5.0 | 6.0 | 0.00 | 0.00 | 0.00 | 65 | 1009.6 |
| 20260902224624 | 93 | 145 | 6.0 | 9.0 | 0.00 | 0.00 | 0.00 | 65 | 1009.4 |
| 20260902224120 | 93 | 191 | 3.0 | 8.0 | 0.00 | 0.00 | 0.00 | 66 | 1009.5 |
| 20260902223616 | 94 | 228 | 7.0 | 9.0 | 0.00 | 0.00 | 0.00 | 65 | 1009.6 |
| 20260902223115 | 94 | 157 | 5.0 | 10.0 | 0.00 | 0.00 | 0.00 | 65 | 1009.6 |
| 20260902222614 | 94 | 157 | 4.0 | 10.0 | 0.00 | 0.00 | 0.00 | 65 | 1009.6 |
| 20260902222113 | 94 | 181 | 2.0 | 8.0 | 0.00 | 0.00 | 0.00 | 65 | 1009.5 |
| 20260902221607 | 95 | 150 | 6.0 | 9.0 | 0.00 | 0.00 | 0.00 | 64 | 1009.6 |
| 20260902221102 | 95 | 189 | 3.0 | 8.0 | 0.00 | 0.00 | 0.00 | 65 | 1009.5 |
| 20260902220557 | 95 | 199 | 1.0 | 5.0 | 0.00 | 0.00 | 0.00 | 65 | 1009.6 |
| 20260902220052 | 95 | 174 | 4.0 | 8.0 | 0.00 | 0.00 | 0.00 | 64 | 1009.3 |
| 20260902215548 | 95 | 199 | 4.0 | 9.0 | 0.00 | 0.00 | 0.00 | 63 | 1009.4 |
| 20260902215043 | 95 | 151 | 2.0 | 8.0 | 0.00 | 0.00 | 0.00 | 63 | 1009.6 |
| 20260902214538 | 96 | 154 | 5.0 | 8.0 | 0.00 | 0.00 | 0.00 | 62 | 1009.6 |
| 20260902214037 | 96 | 220 | 5.0 | 10.0 | 0.00 | 0.00 | 0.00 | 61 | 1009.5 |
| 20260902213533 | 96 | 214 | 5.0 | 7.0 | 0.00 | 0.00 | 0.00 | 59 | 1009.5 |
| 20260902213032 | 96 | 225 | 4.0 | 6.0 | 0.00 | 0.00 | 0.00 | 59 | 1009.7 |
| 20260902212528 | 96 | 140 | 4.0 | 7.0 | 0.00 | 0.00 | 0.00 | 59 | 1009.6 |
| 20260902212024 | 96 | 229 | 6.0 | 13.0 | 0.00 | 0.00 | 0.00 | 59 | 1009.8 |
| 20260902211520 | 96 | 210 | 5.0 | 7.0 | 0.00 | 0.00 | 0.00 | 60 | 1009.9 |
| 20260902211015 | 96 | 175 | 5.0 | 8.0 | 0.00 | 0.00 | 0.00 | 60 | 1009.8 |
| 20260902210514 | 97 | 170 | 3.0 | 6.0 | 0.00 | 0.00 | 0.00 | 59 | 1010.0 |
| 20260902210014 | 96 | 217 | 4.0 | 7.0 | 0.00 | 0.00 | 0.00 | 60 | 1009.9 |
| 20260902205508 | 97 | 213 | 4.0 | 7.0 | 0.00 | 0.00 | 0.00 | 62 | 1009.9 |
| 20260902205004 | 96 | 163 | 3.0 | 8.0 | 0.00 | 0.00 | 0.00 | 61 | 1009.8 |
| 20260902204503 | 96 | 218 | 6.0 | 7.0 | 0.00 | 0.00 | 0.00 | 61 | 1010.2 |
| 20260902203958 | 96 | 191 | 1.0 | 3.0 | 0.00 | 0.00 | 0.00 | 59 | 1010.1 |
| 20260902203454 | 96 | 228 | 5.0 | 8.0 | 0.00 | 0.00 | 0.00 | 59 | 1010.0 |
| 20260902202952 | 96 | 193 | 3.0 | 8.0 | 0.00 | 0.00 | 0.00 | 61 | 1010.2 |
| 20260902202449 | 96 | 217 | 5.0 | 6.0 | 0.00 | 0.00 | 0.00 | 59 | 1010.2 |
| 20260902201945 | 96 | 190 | 3.0 | 8.0 | 0.00 | 0.00 | 0.00 | 59 | 1010.3 |
| 20260902201440 | 97 | 193 | 4.0 | 7.0 | 0.00 | 0.00 | 0.00 | 58 | 1010.2 |
| 20260902200940 | 97 | 172 | 1.0 | 9.0 | 0.00 | 0.00 | 0.00 | 58 | 1010.5 |
| 20260902200435 | 97 | 186 | 1.0 | 6.0 | 0.00 | 0.00 | 0.00 | 60 | 1010.4 |
| 20260902195931 | 97 | 209 | 5.0 | 8.0 | 0.00 | 0.00 | 0.00 | 59 | 1010.7 |
| 20260902195426 | 96 | 223 | 3.0 | 6.0 | 0.00 | 0.00 | 0.00 | 59 | 1010.6 |
| 20260902194926 | 96 | 122 | 3.0 | 7.0 | 0.00 | 0.00 | 0.00 | 60 | 1010.5 |
| 20260902194420 | 96 | 209 | 5.0 | 9.0 | 0.00 | 0.00 | 0.00 | 60 | 1010.8 |
| 20260902193915 | 96 | 177 | 3.0 | 9.0 | 0.00 | 0.00 | 0.00 | 61 | 1010.9 |
| 20260902193411 | 96 | 201 | 1.0 | 7.0 | 0.00 | 0.00 | 0.00 | 60 | 1011.1 |
| 20260902192909 | 97 | 216 | 6.0 | 9.0 | 0.00 | 0.00 | 0.00 | 60 | 1011.0 |
| 20260902192409 | 96 | 231 | 6.0 | 9.0 | 0.00 | 0.00 | 0.00 | 60 | 1011.2 |
| 20260902191902 | 96 | 224 | 3.0 | 6.0 | 0.00 | 0.00 | 0.00 | 61 | 1011.2 |
| 20260902191358 | 96 | 184 | 3.0 | 8.0 | 0.00 | 0.00 | 0.00 | 62 | 1011.3 |
| 20260902190858 | 96 | 190 | 3.0 | 9.0 | 0.00 | 0.00 | 0.00 | 61 | 1011.3 |
| 20260902190353 | 96 | 218 | 5.0 | 8.0 | 0.00 | 0.00 | 0.00 | 63 | 1011.3 |
| 20260902185849 | 94 | 197 | 2.0 | 3.0 | 0.00 | 0.00 | 0.00 | 63 | 1011.6 |
| 20260902185345 | 94 | 240 | 4.0 | 7.0 | 0.00 | 0.00 | 0.00 | 63 | 1011.6 |
| 20260902184840 | 94 | 258 | 5.0 | 7.0 | 0.00 | 0.00 | 0.00 | 64 | 1011.7 |
| 20260902184335 | 95 | 236 | 6.0 | 10.0 | 0.00 | 0.00 | 0.00 | 63 | 1011.6 |
| 20260902183831 | 95 | 236 | 3.0 | 7.0 | 0.00 | 0.00 | 0.00 | 63 | 1011.7 |
| 20260902183327 | 95 | 211 | 6.0 | 8.0 | 0.00 | 0.00 | 0.00 | 63 | 1011.7 |
| 20260902182822 | 96 | 312 | 8.0 | 13.0 | 0.00 | 0.00 | 0.00 | 63 | 1012.0 |
| 20260902182318 | 95 | 223 | 3.0 | 8.0 | 0.00 | 0.00 | 0.00 | 66 | 1012.1 |
| 20260902181815 | 95 | 201 | 2.0 | 8.0 | 0.00 | 0.00 | 0.00 | 66 | 1011.9 |
| 20260902181310 | 94 | 217 | 4.0 | 7.0 | 0.00 | 0.00 | 0.00 | 64 | 1012.2 |
| 20260902180804 | 95 | 240 | 4.0 | 9.0 | 0.00 | 0.00 | 0.00 | 66 | 1012.1 |
| 20260902180300 | 94 | 233 | 6.0 | 8.0 | 0.00 | 0.00 | 0.00 | 66 | 1012.3 |
| 20260902175755 | 93 | 224 | 5.0 | 7.0 | 0.00 | 0.00 | 0.00 | 68 | 1012.6 |
| 20260902175250 | 93 | 235 | 8.0 | 9.0 | 0.00 | 0.00 | 0.00 | 67 | 1012.6 |
| 20260902174746 | 93 | 296 | 11.0 | 13.0 | 0.00 | 0.00 | 0.00 | 69 | 1012.8 |
| 20260902174242 | 93 | 231 | 10.0 | 13.0 | 0.00 | 0.00 | 0.00 | 69 | 1012.7 |
| 20260902173737 | 92 | 185 | 5.0 | 10.0 | 0.00 | 0.00 | 0.00 | 70 | 1012.8 |
| 20260902173237 | 92 | 226 | 6.0 | 10.0 | 0.00 | 0.00 | 0.00 | 70 | 1012.8 |
| 20260902172732 | 92 | 206 | 7.0 | 9.0 | 0.00 | 0.00 | 0.00 | 71 | 1013.1 |
| 20260902172232 | 91 | 236 | 8.0 | 10.0 | 0.00 | 0.00 | 0.00 | 71 | 1013.2 |
| 20260902171727 | 92 | 216 | 5.0 | 9.0 | 0.00 | 0.00 | 0.00 | 72 | 1013.1 |
| 20260902171222 | 91 | 270 | 5.0 | 9.0 | 0.00 | 0.00 | 0.00 | 74 | 1013.4 |
| 20260902170718 | 90 | 220 | 5.0 | 9.0 | 0.00 | 0.00 | 0.00 | 76 | 1013.4 |
| 20260902170213 | 90 | 241 | 5.0 | 13.0 | 0.00 | 0.00 | 0.00 | 76 | 1013.5 |
| 20260902165708 | 89 | 254 | 7.0 | 9.0 | 0.00 | 0.00 | 0.00 | 78 | 1013.5 |
| 20260902165202 | 89 | 228 | 5.0 | 9.0 | 0.00 | 0.00 | 0.00 | 78 | 1013.5 |
| 20260902164657 | 88 | 253 | 9.0 | 10.0 | 0.00 | 0.00 | 0.00 | 79 | 1013.6 |
| 20260902164156 | 88 | 244 | 9.0 | 10.0 | 0.00 | 0.00 | 0.00 | 80 | 1013.7 |
| 20260902163652 | 88 | 231 | 5.0 | 11.0 | 0.00 | 0.00 | 0.00 | 83 | 1013.7 |
| 20260902163151 | 88 | 218 | 5.0 | 10.0 | 0.00 | 0.00 | 0.00 | 82 | 1013.8 |
| 20260902162650 | 88 | 183 | 5.0 | 9.0 | 0.00 | 0.00 | 0.00 | 84 | 1013.7 |
| 20260902162144 | 87 | 262 | 8.0 | 13.0 | 0.00 | 0.00 | 0.00 | 83 | 1013.9 |
| 20260902161640 | 87 | 198 | 8.0 | 13.0 | 0.00 | 0.00 | 0.00 | 84 | 1013.9 |
| 20260902161136 | 87 | 236 | 7.0 | 14.0 | 0.00 | 0.00 | 0.00 | 84 | 1014.0 |
| 20260902160632 | 87 | 240 | 9.0 | 13.0 | 0.00 | 0.00 | 0.00 | 84 | 1013.9 |
| 20260902160127 | 87 | 238 | 5.0 | 11.0 | 0.00 | 0.00 | 0.00 | 86 | 1014.0 |
| 20260902155625 | 87 | 213 | 8.0 | 14.0 | 0.00 | 0.00 | 0.00 | 87 | 1013.9 |
| 20260902155124 | 87 | 239 | 9.0 | 13.0 | 0.00 | 0.00 | 0.00 | 87 | 1013.9 |
| 20260902154619 | 86 | 275 | 6.0 | 13.0 | 0.00 | 0.00 | 0.00 | 88 | 1013.9 |
| 20260902154114 | 86 | 211 | 6.0 | 10.0 | 0.00 | 0.00 | 0.00 | 89 | 1013.8 |
| 20260902153613 | 85 | 226 | 6.0 | 11.0 | 0.00 | 0.00 | 0.00 | 89 | 1013.9 |
| 20260902153108 | 85 | 243 | 8.0 | 10.0 | 0.00 | 0.00 | 0.00 | 90 | 1013.9 |
| 20260902152605 | 85 | 212 | 7.0 | 11.0 | 0.00 | 0.00 | 0.00 | 91 | 1013.8 |
| 20260902152100 | 85 | 248 | 5.0 | 10.0 | 0.00 | 0.00 | 0.00 | 91 | 1013.7 |
| 20260902151556 | 84 | 221 | 4.0 | 7.0 | 0.00 | 0.00 | 0.00 | 92 | 1013.8 |
| 20260902151055 | 84 | 238 | 7.0 | 9.0 | 0.00 | 0.00 | 0.00 | 93 | 1013.8 |
| 20260902150550 | 84 | 214 | 6.0 | 10.0 | 0.00 | 0.00 | 0.00 | 94 | 1013.8 |
| 20260902150046 | 84 | 263 | 9.0 | 10.0 | 0.00 | 0.00 | 0.00 | 94 | 1013.7 |
| 20260902145541 | 83 | 262 | 7.0 | 9.0 | 0.00 | 0.00 | 0.00 | 95 | 1013.6 |
| 20260902145040 | 83 | 225 | 5.0 | 11.0 | 0.00 | 0.00 | 0.00 | 96 | 1013.7 |
| 20260902144537 | 83 | 240 | 8.0 | 11.0 | 0.00 | 0.00 | 0.00 | 97 | 1013.8 |
| 20260902144038 | 82 | 253 | 4.0 | 8.0 | 0.00 | 0.00 | 0.00 | 98 | 1013.7 |
| 20260902143538 | 82 | 229 | 8.0 | 9.0 | 0.00 | 0.00 | 0.00 | 98 | 1013.7 |
| 20260902143034 | 82 | 230 | 5.0 | 6.0 | 0.00 | 0.00 | 0.00 | 99 | 1013.8 |
| 20260902142529 | 82 | 213 | 5.0 | 7.0 | 0.00 | 0.00 | 0.00 | 99 | 1013.9 |
| 20260902142024 | 82 | 224 | 5.0 | 6.0 | 0.00 | 0.00 | 0.00 | 99 | 1013.7 |
| 20260902141524 | 81 | 231 | 3.0 | 3.0 | 0.00 | 0.00 | 0.00 | 99 | 1013.7 |
| 20260902141019 | 81 | 239 | 5.0 | 6.0 | 0.00 | 0.00 | 0.00 | 99 | 1013.6 |
| 20260902140514 | 81 | 301 | 5.0 | 5.0 | 0.00 | 0.00 | 0.00 | 99 | 1013.9 |
| 20260902140009 | 80 | 234 | 0.0 | 0.0 | 0.00 | 0.00 | 0.00 | 99 | 1013.8 |
| 20260902135504 | 80 | 219 | 0.0 | 0.0 | 0.00 | 0.00 | 0.00 | 99 | 1013.9 |
| 20260902135004 | 80 | 209 | 0.0 | 0.0 | 0.00 | 0.00 | 0.00 | 99 | 1013.9 |
| 20260902134459 | 80 | 221 | 0.0 | 0.0 | 0.00 | 0.00 | 0.00 | 99 | 1014.0 |
| 20260902133954 | 79 | 211 | 0.0 | 0.0 | 0.00 | 0.00 | 0.00 | 99 | 1014.0 |
| 20260902133448 | 79 | 248 | 2.0 | 2.0 | 0.00 | 0.00 | 0.00 | 99 | 1013.7 |
| 20260902132943 | 79 | 207 | 0.0 | 0.0 | 0.00 | 0.00 | 0.00 | 99 | 1013.7 |
| 20260902132439 | 79 | 206 | 0.0 | 0.0 | 0.00 | 0.00 | 0.00 | 99 | 1013.5 |
| 20260902131933 | 79 | 205 | 0.0 | 0.0 | 0.00 | 0.00 | 0.00 | 99 | 1013.6 |
| 20260902131430 | 79 | 205 | 0.0 | 0.0 | 0.00 | 0.00 | 0.00 | 99 | 1013.6 |
| 20260902130929 | 78 | 205 | 0.0 | 0.0 | 0.00 | 0.00 | 0.00 | 99 | 1013.3 |
| 20260902130426 | 78 | 205 | 0.0 | 0.0 | 0.00 | 0.00 | 0.00 | 99 | 1013.3 |
| 20260902125920 | 78 | 206 | 0.0 | 0.0 | 0.00 | 0.00 | 0.00 | 99 | 1013.5 |
| 20260902125416 | 78 | 205 | 0.0 | 0.0 | 0.00 | 0.00 | 0.00 | 99 | 1013.2 |
| 20260902124912 | 78 | 205 | 0.0 | 0.0 | 0.00 | 0.00 | 0.00 | 99 | 1013.4 |
| 20260902124408 | 78 | 205 | 0.0 | 0.0 | 0.00 | 0.00 | 0.00 | 99 | 1013.2 |
| 20260902123903 | 77 | 205 | 0.0 | 0.0 | 0.00 | 0.00 | 0.00 | 99 | 1013.0 |
| 20260902123359 | 77 | 205 | 0.0 | 0.0 | 0.00 | 0.00 | 0.00 | 99 | 1012.8 |
| 20260902122857 | 77 | 205 | 0.0 | 0.0 | 0.00 | 0.00 | 0.00 | 99 | 1012.7 |
| 20260902122353 | 77 | 205 | 0.0 | 0.0 | 0.00 | 0.00 | 0.00 | 99 | 1012.6 |
| 20260902121848 | 77 | 206 | 0.0 | 0.0 | 0.00 | 0.00 | 0.00 | 99 | 1012.5 |
| 20260902121343 | 77 | 206 | 0.0 | 0.0 | 0.00 | 0.00 | 0.00 | 99 | 1012.5 |
| 20260902120838 | 77 | 207 | 0.0 | 0.0 | 0.00 | 0.00 | 0.00 | 99 | 1012.7 |
| 20260902120334 | 77 | 213 | 0.0 | 0.0 | 0.00 | 0.00 | 0.00 | 99 | 1012.6 |
| 20260902115828 | 77 | 202 | 0.0 | 1.0 | 0.00 | 0.00 | 0.00 | 99 | 1012.7 |
| 20260902115325 | 77 | 203 | 1.0 | 1.0 | 0.00 | 0.00 | 0.00 | 99 | 1012.8 |
| 20260902114821 | 77 | 206 | 0.0 | 0.0 | 0.00 | 0.00 | 0.00 | 99 | 1012.7 |
| 20260902114317 | 77 | 205 | 0.0 | 0.0 | 0.00 | 0.00 | 0.00 | 99 | 1012.7 |
| 20260902113816 | 77 | 206 | 0.0 | 0.0 | 0.00 | 0.00 | 0.00 | 99 | 1012.7 |
| 20260902113312 | 77 | 205 | 0.0 | 0.0 | 0.00 | 0.00 | 0.00 | 99 | 1012.5 |
| 20260902112811 | 77 | 205 | 0.0 | 0.0 | 0.00 | 0.00 | 0.00 | 99 | 1012.6 |
| 20260902112308 | 77 | 206 | 0.0 | 0.0 | 0.00 | 0.00 | 0.00 | 99 | 1012.6 |
| 20260902111803 | 77 | 206 | 0.0 | 0.0 | 0.00 | 0.00 | 0.00 | 99 | 1012.6 |
| 20260902111300 | 77 | 205 | 0.0 | 0.0 | 0.00 | 0.00 | 0.00 | 99 | 1012.7 |
| 20260902110755 | 77 | 205 | 0.0 | 0.0 | 0.00 | 0.00 | 0.00 | 99 | 1012.6 |
| 20260902110251 | 77 | 205 | 0.0 | 0.0 | 0.00 | 0.00 | 0.00 | 99 | 1012.5 |
| 20260902105750 | 77 | 205 | 0.0 | 0.0 | 0.00 | 0.00 | 0.00 | 99 | 1012.4 |
| 20260902105246 | 77 | 205 | 0.0 | 0.0 | 0.00 | 0.00 | 0.00 | 99 | 1012.5 |
| 20260902104741 | 77 | 205 | 0.0 | 0.0 | 0.00 | 0.00 | 0.00 | 99 | 1012.6 |
| 20260902104237 | 77 | 206 | 0.0 | 0.0 | 0.00 | 0.00 | 0.00 | 99 | 1012.5 |
| 20260902103736 | 77 | 206 | 0.0 | 0.0 | 0.00 | 0.00 | 0.00 | 99 | 1012.4 |
| 20260902103231 | 77 | 207 | 0.0 | 0.0 | 0.00 | 0.00 | 0.00 | 99 | 1012.4 |
| 20260902102727 | 78 | 206 | 0.0 | 0.0 | 0.00 | 0.00 | 0.00 | 99 | 1012.4 |
| 20260902102224 | 78 | 206 | 0.0 | 0.0 | 0.00 | 0.00 | 0.00 | 99 | 1012.6 |
| 20260902101719 | 78 | 206 | 0.0 | 0.0 | 0.00 | 0.00 | 0.00 | 99 | 1012.4 |
| 20260902101214 | 77 | 206 | 0.0 | 0.0 | 0.00 | 0.00 | 0.00 | 99 | 1012.2 |
| 20260902100713 | 78 | 206 | 0.0 | 0.0 | 0.00 | 0.00 | 0.00 | 99 | 1012.2 |
| 20260902100208 | 77 | 206 | 0.0 | 0.0 | 0.00 | 0.00 | 0.00 | 99 | 1012.2 |
| 20260902095708 | 78 | 206 | 0.0 | 0.0 | 0.00 | 0.00 | 0.00 | 99 | 1012.5 |
| 20260902095202 | 78 | 206 | 0.0 | 0.0 | 0.00 | 0.00 | 0.00 | 99 | 1012.5 |
| 20260902094657 | 78 | 206 | 0.0 | 0.0 | 0.00 | 0.00 | 0.00 | 99 | 1012.4 |
| 20260902094154 | 78 | 206 | 0.0 | 0.0 | 0.00 | 0.00 | 0.00 | 99 | 1012.3 |
| 20260902093653 | 78 | 206 | 0.0 | 0.0 | 0.00 | 0.00 | 0.00 | 99 | 1012.3 |
| 20260902093148 | 78 | 206 | 0.0 | 0.0 | 0.00 | 0.00 | 0.00 | 99 | 1012.5 |
| 20260902092643 | 78 | 206 | 0.0 | 0.0 | 0.00 | 0.00 | 0.00 | 99 | 1012.4 |
| 20260902092143 | 78 | 206 | 0.0 | 0.0 | 0.00 | 0.00 | 0.00 | 99 | 1012.3 |
| 20260902091637 | 78 | 206 | 0.0 | 0.0 | 0.00 | 0.00 | 0.00 | 99 | 1012.3 |
| 20260902091134 | 78 | 208 | 0.0 | 0.0 | 0.00 | 0.00 | 0.00 | 99 | 1012.4 |
| 20260902090630 | 78 | 206 | 0.0 | 0.0 | 0.00 | 0.00 | 0.00 | 99 | 1012.2 |
| 20260902090129 | 78 | 207 | 0.0 | 0.0 | 0.00 | 0.00 | 0.00 | 99 | 1012.2 |
| 20260902085624 | 78 | 208 | 0.0 | 0.0 | 0.00 | 0.00 | 0.00 | 99 | 1012.1 |
| 20260902085119 | 78 | 207 | 0.0 | 0.0 | 0.00 | 0.00 | 0.00 | 99 | 1012.4 |
| 20260902084615 | 78 | 208 | 0.0 | 0.0 | 0.00 | 0.00 | 0.00 | 99 | 1012.3 |
| 20260902084110 | 78 | 204 | 0.0 | 0.0 | 0.00 | 0.00 | 0.00 | 99 | 1012.2 |
| 20260902083606 | 78 | 204 | 0.0 | 0.0 | 0.00 | 0.00 | 0.00 | 99 | 1012.2 |
| 20260902083105 | 79 | 205 | 0.0 | 0.0 | 0.00 | 0.00 | 0.00 | 99 | 1012.6 |
| 20260902082601 | 79 | 207 | 0.0 | 0.0 | 0.00 | 0.00 | 0.00 | 99 | 1012.3 |
| 20260902082057 | 79 | 207 | 0.0 | 0.0 | 0.00 | 0.00 | 0.00 | 99 | 1012.5 |
| 20260902081554 | 79 | 208 | 0.0 | 0.0 | 0.00 | 0.00 | 0.00 | 99 | 1012.3 |
| 20260902081053 | 79 | 209 | 0.0 | 0.0 | 0.00 | 0.00 | 0.00 | 99 | 1012.3 |
| 20260902080548 | 79 | 210 | 0.0 | 0.0 | 0.00 | 0.00 | 0.00 | 99 | 1012.4 |
| 20260902080045 | 79 | 211 | 0.0 | 0.0 | 0.00 | 0.00 | 0.00 | 99 | 1012.5 |
| 20260902075544 | 79 | 215 | 0.0 | 0.0 | 0.00 | 0.00 | 0.00 | 99 | 1012.3 |
| 20260902075041 | 79 | 214 | 0.0 | 0.0 | 0.00 | 0.00 | 0.00 | 99 | 1012.4 |
| 20260902074536 | 79 | 210 | 0.0 | 0.0 | 0.00 | 0.00 | 0.00 | 99 | 1012.2 |
| 20260902074031 | 79 | 210 | 0.0 | 0.0 | 0.00 | 0.00 | 0.00 | 99 | 1012.3 |
| 20260902073526 | 79 | 204 | 0.0 | 0.0 | 0.00 | 0.00 | 0.00 | 99 | 1012.2 |
| 20260902073023 | 79 | 204 | 0.0 | 0.0 | 0.00 | 0.00 | 0.00 | 99 | 1012.5 |
| 20260902072518 | 79 | 207 | 0.0 | 0.0 | 0.00 | 0.00 | 0.00 | 99 | 1012.7 |
| 20260902072015 | 79 | 207 | 0.0 | 0.0 | 0.00 | 0.00 | 0.00 | 99 | 1012.7 |
| 20260902071514 | 79 | 208 | 1.0 | 2.0 | 0.00 | 0.00 | 0.00 | 99 | 1012.5 |
| 20260902071011 | 79 | 208 | 0.0 | 0.0 | 0.00 | 0.00 | 0.00 | 99 | 1012.5 |
| 20260902070506 | 79 | 212 | 1.0 | 3.0 | 0.00 | 0.00 | 0.00 | 99 | 1012.6 |
| 20260902070007 | 79 | 203 | 1.0 | 3.0 | 0.00 | 0.00 | 0.00 | 99 | 1012.5 |
| 20260902065500 | 79 | 212 | 3.0 | 3.0 | 0.00 | 0.00 | 0.00 | 99 | 1012.5 |
| 20260902064955 | 79 | 222 | 2.0 | 3.0 | 0.00 | 0.00 | 0.00 | 99 | 1012.5 |
| 20260902064450 | 79 | 211 | 0.0 | 0.0 | 0.00 | 0.00 | 0.00 | 99 | 1012.4 |
| 20260902063946 | 79 | 209 | 0.0 | 0.0 | 0.00 | 0.00 | 0.00 | 99 | 1012.5 |
| 20260902063445 | 79 | 208 | 0.0 | 0.0 | 0.00 | 0.00 | 0.00 | 99 | 1012.2 |
| 20260902062941 | 79 | 208 | 0.0 | 0.0 | 0.00 | 0.00 | 0.00 | 99 | 1012.5 |
| 20260902062440 | 79 | 209 | 0.0 | 0.0 | 0.00 | 0.00 | 0.00 | 99 | 1012.4 |
| 20260902061935 | 79 | 209 | 0.0 | 0.0 | 0.00 | 0.00 | 0.00 | 99 | 1012.5 |
| 20260902061430 | 78 | 209 | 0.0 | 0.0 | 0.00 | 0.00 | 0.00 | 99 | 1012.5 |
| 20260902060926 | 78 | 209 | 0.0 | 0.0 | 0.00 | 0.00 | 0.00 | 99 | 1012.4 |
| 20260902060422 | 78 | 210 | 0.0 | 0.0 | 0.00 | 0.00 | 0.00 | 99 | 1012.3 |
| 20260902055918 | 78 | 210 | 0.0 | 0.0 | 0.00 | 0.00 | 0.00 | 99 | 1012.3 |
| 20260902055414 | 78 | 209 | 0.0 | 0.0 | 0.00 | 0.00 | 0.00 | 99 | 1012.4 |
| 20260902054909 | 78 | 203 | 0.0 | 1.0 | 0.00 | 0.00 | 0.00 | 99 | 1012.4 |
| 20260902054404 | 78 | 202 | 0.0 | 0.0 | 0.00 | 0.00 | 0.00 | 99 | 1012.6 |
| 20260902053859 | 78 | 202 | 0.0 | 0.0 | 0.00 | 0.00 | 0.00 | 99 | 1012.7 |
| 20260902053354 | 78 | 202 | 0.0 | 0.0 | 0.00 | 0.00 | 0.00 | 99 | 1012.6 |
| 20260902052853 | 78 | 202 | 0.0 | 0.0 | 0.00 | 0.00 | 0.00 | 99 | 1012.3 |
| 20260902052349 | 78 | 201 | 0.0 | 0.0 | 0.00 | 0.00 | 0.00 | 99 | 1012.5 |
| 20260902051844 | 78 | 202 | 0.0 | 0.0 | 0.00 | 0.00 | 0.00 | 99 | 1012.5 |
| 20260902051343 | 78 | 202 | 0.0 | 1.0 | 0.00 | 0.00 | 0.00 | 99 | 1012.6 |
| 20260902050838 | 78 | 201 | 0.0 | 0.0 | 0.00 | 0.00 | 0.00 | 99 | 1012.6 |
| 20260902050337 | 78 | 201 | 0.0 | 0.0 | 0.00 | 0.00 | 0.00 | 99 | 1012.5 |
| 20260902045832 | 78 | 201 | 0.0 | 0.0 | 0.00 | 0.00 | 0.00 | 99 | 1012.6 |
| 20260902045328 | 78 | 201 | 0.0 | 0.0 | 0.00 | 0.00 | 0.00 | 99 | 1012.5 |
| 20260902044824 | 78 | 201 | 0.0 | 0.0 | 0.00 | 0.00 | 0.00 | 99 | 1012.5 |
| 20260902044320 | 78 | 201 | 0.0 | 0.0 | 0.00 | 0.00 | 0.00 | 99 | 1012.4 |
| 20260902043819 | 79 | 202 | 0.0 | 0.0 | 0.00 | 0.00 | 0.00 | 99 | 1012.4 |
| 20260902043315 | 79 | 201 | 0.0 | 0.0 | 0.00 | 0.00 | 0.00 | 99 | 1012.4 |
| 20260902042814 | 79 | 201 | 0.0 | 0.0 | 0.00 | 0.00 | 0.00 | 99 | 1012.4 |
| 20260902042309 | 79 | 202 | 0.0 | 0.0 | 0.00 | 0.00 | 0.00 | 99 | 1012.4 |
| 20260902041805 | 79 | 202 | 0.0 | 0.0 | 0.00 | 0.00 | 0.00 | 98 | 1012.4 |
| 20260902041304 | 79 | 202 | 0.0 | 0.0 | 0.00 | 0.00 | 0.00 | 98 | 1012.7 |
| 20260902040803 | 79 | 202 | 0.0 | 0.0 | 0.00 | 0.00 | 0.00 | 97 | 1012.6 |
| 20260902040259 | 79 | 201 | 0.0 | 0.0 | 0.00 | 0.00 | 0.00 | 97 | 1012.6 |
| 20260902035757 | 79 | 202 | 0.0 | 0.0 | 0.00 | 0.00 | 0.00 | 97 | 1012.8 |
| 20260902035254 | 79 | 202 | 0.0 | 0.0 | 0.00 | 0.00 | 0.00 | 97 | 1012.6 |
| 20260902034752 | 79 | 202 | 0.0 | 0.0 | 0.00 | 0.00 | 0.00 | 97 | 1012.7 |
| 20260902034247 | 79 | 202 | 0.0 | 0.0 | 0.00 | 0.00 | 0.00 | 96 | 1012.5 |
| 20260902033745 | 80 | 202 | 0.0 | 0.0 | 0.00 | 0.00 | 0.00 | 97 | 1012.5 |
| 20260902033241 | 80 | 202 | 0.0 | 0.0 | 0.00 | 0.00 | 0.00 | 97 | 1012.7 |
| 20260902032739 | 79 | 202 | 0.0 | 0.0 | 0.00 | 0.00 | 0.00 | 97 | 1012.6 |
| 20260902032235 | 79 | 202 | 0.0 | 0.0 | 0.00 | 0.00 | 0.00 | 97 | 1012.4 |
| 20260902031734 | 79 | 202 | 0.0 | 0.0 | 0.00 | 0.00 | 0.00 | 97 | 1012.4 |
| 20260902031230 | 79 | 202 | 0.0 | 0.0 | 0.00 | 0.00 | 0.00 | 96 | 1012.5 |
| 20260902030726 | 79 | 202 | 0.0 | 0.0 | 0.00 | 0.00 | 0.00 | 96 | 1012.2 |
| 20260902030226 | 79 | 202 | 0.0 | 0.0 | 0.00 | 0.00 | 0.00 | 96 | 1012.3 |
| 20260902025725 | 79 | 202 | 0.0 | 0.0 | 0.00 | 0.00 | 0.00 | 96 | 1012.0 |
| 20260902025220 | 79 | 202 | 0.0 | 0.0 | 0.00 | 0.00 | 0.00 | 96 | 1011.9 |
| 20260902024715 | 79 | 202 | 0.0 | 0.0 | 0.00 | 0.00 | 0.00 | 96 | 1012.1 |
| 20260902024210 | 80 | 202 | 0.0 | 1.0 | 0.00 | 0.00 | 0.00 | 95 | 1011.8 |
| 20260902023706 | 79 | 201 | 0.0 | 1.0 | 0.00 | 0.00 | 0.00 | 95 | 1011.9 |
| 20260902023201 | 79 | 201 | 0.0 | 1.0 | 0.00 | 0.00 | 0.00 | 95 | 1011.9 |
| 20260902022700 | 80 | 200 | 0.0 | 1.0 | 0.00 | 0.00 | 0.00 | 95 | 1011.8 |
| 20260902022156 | 80 | 199 | 0.0 | 0.0 | 0.00 | 0.00 | 0.00 | 94 | 1011.8 |
| 20260902021652 | 80 | 199 | 0.0 | 0.0 | 0.00 | 0.00 | 0.00 | 94 | 1011.6 |
| 20260902021146 | 80 | 199 | 0.0 | 0.0 | 0.00 | 0.00 | 0.00 | 94 | 1011.5 |
| 20260902020642 | 80 | 199 | 0.0 | 0.0 | 0.00 | 0.00 | 0.00 | 93 | 1011.3 |
| 20260902020138 | 80 | 199 | 0.0 | 0.0 | 0.00 | 0.00 | 0.00 | 92 | 1011.4 |
| 20260902015633 | 81 | 199 | 0.0 | 0.0 | 0.00 | 0.00 | 0.00 | 92 | 1011.4 |
| 20260902015130 | 81 | 198 | 0.0 | 0.0 | 0.00 | 0.00 | 0.00 | 92 | 1011.1 |
| 20260902014625 | 81 | 198 | 0.0 | 0.0 | 0.00 | 0.00 | 0.00 | 92 | 1011.1 |
| 20260902014120 | 81 | 199 | 0.0 | 0.0 | 0.00 | 0.00 | 0.00 | 91 | 1011.2 |
| 20260902013620 | 81 | 199 | 0.0 | 0.0 | 0.00 | 0.00 | 0.00 | 91 | 1010.9 |
| 20260902013115 | 82 | 198 | 0.0 | 0.0 | 0.00 | 0.00 | 0.00 | 90 | 1010.7 |
| 20260902012611 | 82 | 198 | 0.0 | 0.0 | 0.00 | 0.00 | 0.00 | 89 | 1011.0 |
| 20260902012106 | 82 | 198 | 0.0 | 0.0 | 0.00 | 0.00 | 0.00 | 89 | 1010.9 |
| 20260902011602 | 82 | 201 | 1.0 | 1.0 | 0.00 | 0.00 | 0.00 | 88 | 1010.8 |
| 20260902011101 | 83 | 194 | 0.0 | 0.0 | 0.00 | 0.00 | 0.00 | 86 | 1011.0 |
| 20260902010600 | 84 | 193 | 0.0 | 0.0 | 0.00 | 0.00 | 0.00 | 85 | 1010.8 |
| 20260902010056 | 85 | 186 | 0.0 | 0.0 | 0.00 | 0.00 | 0.00 | 82 | 1011.0 |
| 20260902005554 | 85 | 171 | 0.0 | 0.0 | 0.00 | 0.00 | 0.00 | 80 | 1011.0 |
| 20260902005051 | 85 | 164 | 0.0 | 1.0 | 0.00 | 0.00 | 0.00 | 80 | 1011.0 |
| 20260902004549 | 85 | 119 | 0.0 | 0.0 | 0.00 | 0.00 | 0.00 | 80 | 1011.2 |
| 20260902004045 | 85 | 161 | 0.0 | 1.0 | 0.00 | 0.00 | 0.00 | 81 | 1011.2 |
| 20260902003540 | 85 | 66 | 1.0 | 2.0 | 0.00 | 0.00 | 0.00 | 81 | 1011.2 |
| 20260902003036 | 85 | 165 | 0.0 | 0.0 | 0.00 | 0.00 | 0.00 | 81 | 1011.0 |
| 20260902002532 | 85 | 154 | 0.0 | 1.0 | 0.00 | 0.00 | 0.00 | 81 | 1011.1 |
| 20260902002026 | 86 | 128 | 0.0 | 2.0 | 0.00 | 0.00 | 0.00 | 81 | 1011.2 |
| 20260902001521 | 86 | 111 | 1.0 | 5.0 | 0.00 | 0.00 | 0.00 | 80 | 1011.2 |
| 20260902001016 | 86 | 158 | 0.0 | 2.0 | 0.00 | 0.00 | 0.00 | 81 | 1011.0 |
| 20260902000511 | 86 | 93 | 2.0 | 2.0 | 0.00 | 0.00 | 0.00 | 80 | 1011.1 |
| 20260902000006 | 86 | 105 | 1.0 | 3.0 | 0.00 | 0.00 | 0.00 | 79 | 1011.0 |
| 20260901235501 | 87 | 22 | 3.0 | 5.0 | 0.00 | 0.00 | 0.00 | 79 | 1010.9 |